Date String (YYYY-MM-DD hh:mm:ss) UTC,Instrument flags,Ambient pressure (hPa),Sample flow (lpm),Bypass flow (lpm),Sample temperature (°C),Ambient temperature (°C),ASC tube jacket temperature (°C),LED temperature (°C),Box temperature (°C),Sample RH (%),Span deviation,Mass concentration (μg/m³),Mass concentration (μg/m³),Mass concentration (μg/m³)
DateTimeUTC,F1_M11,P_M11,Q1_M11,Q2_M11,T1_M11,T2_M11,T3_M11,T4_M11,T5_M11,U1_M11,ZSPAN_M11,X2_M11,X0_M11,X1_M11
2022-09-24 17:00:00,,0831.1,5.00,0.00,30.4,27.5,00.0,39.0,32.2,14.2,0000.0,0002.97,0007.46,0002.17
2022-09-24 17:01:00,,0831.0,5.00,0.00,30.3,26.9,00.0,39.0,32.1,14.4,0000.0,0003.02,0006.81,0002.18
2022-09-24 17:02:00,,0831.0,5.02,0.00,30.3,27.1,00.0,38.9,32.0,15.0,0000.0,0002.99,0006.45,0002.18
2022-09-24 17:03:00,,0831.1,5.00,0.00,30.2,27.3,00.0,38.9,31.9,15.1,0000.0,0002.96,0006.22,0002.18
2022-09-24 17:04:00,,0831.1,5.00,0.00,30.2,27.7,00.0,38.9,31.9,14.9,0000.0,0002.92,0005.98,0002.19
2022-09-24 17:05:00,,0831.1,4.99,0.00,30.2,28.0,00.0,38.9,31.9,14.9,0000.0,0002.90,0006.00,0002.20
2022-09-24 17:06:00,,0831.1,5.01,0.00,30.2,28.2,00.0,38.9,32.0,14.9,0000.0,0002.89,0005.91,0002.20
2022-09-24 17:07:00,,0831.1,4.99,0.00,30.2,28.4,00.0,38.9,32.0,15.0,0000.0,0002.89,0005.92,0002.19
2022-09-24 17:08:00,,0831.1,4.99,0.00,30.2,28.6,00.0,38.9,32.0,14.9,0000.0,0002.94,0006.08,0002.19
2022-09-24 17:09:00,,0831.1,5.02,0.00,30.2,28.7,00.0,38.9,32.0,14.9,0000.0,0002.97,0006.21,0002.20
2022-09-24 17:10:00,,0831.1,4.99,0.00,30.2,28.9,00.0,38.9,32.1,15.1,0000.0,0002.99,0006.09,0002.19
2022-09-24 17:11:00,,0831.0,5.00,0.00,30.2,29.0,00.0,38.9,32.1,14.2,0000.0,0003.02,0005.23,0002.19
2022-09-24 17:12:00,,0831.0,5.00,0.00,30.3,29.1,00.0,38.9,32.2,14.9,0000.0,0003.01,0005.22,0002.20
2022-09-24 17:13:00,,0831.0,5.00,0.00,30.3,29.2,00.0,39.0,32.2,15.2,0000.0,0002.97,0005.22,0002.21
2022-09-24 17:14:00,,0831.0,5.00,0.00,30.3,28.7,00.0,38.9,32.2,14.6,0000.0,0002.93,0005.14,0002.21
2022-09-24 17:15:00,,0831.1,4.99,0.00,30.3,27.3,00.0,38.9,32.1,14.5,0000.0,0002.90,0005.09,0002.19
2022-09-24 17:16:00,,0831.0,5.00,0.00,30.3,26.8,00.0,38.9,32.0,14.8,0000.0,0002.90,0004.96,0002.18
2022-09-24 17:17:00,,0831.0,4.99,0.00,30.2,27.0,00.0,38.8,31.9,14.6,0000.0,0002.92,0004.99,0002.17
2022-09-24 17:18:00,,0831.0,5.00,0.00,30.1,27.3,00.0,38.8,31.8,14.4,0000.0,0002.92,0004.95,0002.16
2022-09-24 17:19:00,,0831.0,5.01,0.00,30.1,27.6,00.0,38.8,31.8,14.2,0000.0,0002.89,0004.99,0002.16
2022-09-24 17:20:00,,0831.0,5.00,0.00,30.1,27.9,00.0,38.8,31.8,13.7,0000.0,0002.85,0004.83,0002.16
2022-09-24 17:21:00,,0831.0,5.00,0.00,30.1,28.2,00.0,38.8,31.9,14.0,0000.0,0002.85,0005.07,0002.16
2022-09-24 17:22:00,,0831.0,4.99,0.00,30.1,28.4,00.0,38.8,31.9,13.9,0000.0,0002.83,0005.43,0002.16
2022-09-24 17:23:00,,0831.0,5.02,0.00,30.1,28.6,00.0,38.8,32.0,13.7,0000.0,0002.82,0005.45,0002.15
2022-09-24 17:24:00,,0831.0,5.00,0.00,30.1,28.7,00.0,38.8,32.0,13.8,0000.0,0002.84,0005.45,0002.12
2022-09-24 17:25:00,,0831.0,5.00,0.00,30.1,28.8,00.0,38.8,32.0,14.4,0000.0,0002.95,0005.88,0002.11
2022-09-24 17:26:00,,0831.0,5.00,0.00,30.2,28.9,00.0,38.8,32.1,14.2,0000.0,0003.01,0007.46,0002.11
2022-09-24 17:27:00,,0830.9,5.01,0.00,30.2,29.0,00.0,38.8,32.1,14.3,0000.0,0003.03,0007.49,0002.12
2022-09-24 17:28:00,,0830.9,4.99,0.00,30.2,29.1,00.0,38.9,32.2,14.0,0000.0,0003.02,0007.49,0002.12
2022-09-24 17:29:00,,0830.9,4.99,0.00,30.3,28.6,00.0,38.9,32.2,14.1,0000.0,0003.05,0007.98,0002.12
2022-09-24 17:30:00,,0830.9,5.00,0.00,30.2,27.2,00.0,38.8,32.0,13.5,0000.0,0003.05,0007.91,0002.12
2022-09-24 17:31:00,,0830.9,5.00,0.00,30.2,26.7,00.0,38.8,31.9,13.7,0000.0,0003.08,0007.90,0002.13
2022-09-24 17:32:00,,0830.9,5.00,0.00,30.1,26.9,00.0,38.7,31.9,13.7,0000.0,0003.11,0007.72,0002.13
2022-09-24 17:33:00,,0830.9,5.00,0.00,30.1,27.2,00.0,38.7,31.8,14.1,0000.0,0003.09,0007.45,0002.14
2022-09-24 17:34:00,,0831.0,5.01,0.00,30.0,27.6,00.0,38.7,31.7,14.2,0000.0,0003.11,0007.52,0002.14
2022-09-24 17:35:00,,0830.9,4.99,0.00,30.0,27.9,00.0,38.7,31.8,14.5,0000.0,0003.13,0007.66,0002.14
2022-09-24 17:36:00,,0830.9,5.01,0.00,30.0,28.1,00.0,38.7,31.9,14.3,0000.0,0003.06,0007.58,0002.15
2022-09-24 17:37:00,,0830.9,5.00,0.00,30.0,28.3,00.0,38.7,31.9,13.7,0000.0,0003.05,0006.32,0002.16
2022-09-24 17:38:00,,0830.8,5.01,0.00,30.0,28.5,00.0,38.7,31.9,13.8,0000.0,0003.05,0006.13,0002.16
2022-09-24 17:39:00,,0830.8,5.00,0.00,30.1,28.7,00.0,38.7,32.0,14.0,0000.0,0003.02,0006.07,0002.14
2022-09-24 17:40:00,,0830.8,5.00,0.00,30.1,28.8,00.0,38.7,32.0,14.7,0000.0,0002.97,0005.21,0002.14
2022-09-24 17:41:00,,0830.8,4.99,0.00,30.1,28.9,00.0,38.8,32.0,15.1,0000.0,0002.93,0005.23,0002.13
2022-09-24 17:42:00,,0830.8,5.00,0.00,30.2,29.0,00.0,38.8,32.1,14.4,0000.0,0002.93,0005.35,0002.12
2022-09-24 17:43:00,,0830.7,5.00,0.00,30.2,28.9,00.0,38.8,32.1,14.0,0000.0,0002.88,0005.51,0002.12
2022-09-24 17:44:00,,0830.8,5.00,0.00,30.2,27.7,00.0,38.8,32.0,14.2,0000.0,0002.92,0005.61,0002.11
2022-09-24 17:45:00,,0830.7,5.00,0.00,30.1,26.7,00.0,38.7,31.9,14.4,0000.0,0002.93,0005.55,0002.11
2022-09-24 17:46:00,,0830.8,5.00,0.00,30.1,26.9,00.0,38.7,31.9,13.7,0000.0,0002.93,0005.34,0002.11
2022-09-24 17:47:00,,0830.7,5.00,0.00,30.0,27.1,00.0,38.7,31.8,12.7,0000.0,0002.92,0005.17,0002.11
2022-09-24 17:48:00,,0830.8,5.01,0.00,30.0,27.5,00.0,38.7,31.7,13.7,0000.0,0002.91,0005.13,0002.12
2022-09-24 17:49:00,,0830.8,5.00,0.00,30.0,27.8,00.0,38.7,31.8,13.2,0000.0,0002.88,0005.89,0002.14
2022-09-24 17:50:00,,0830.8,5.00,0.00,30.0,28.0,00.0,38.7,31.8,13.9,0000.0,0002.88,0006.33,0002.16
2022-09-24 17:51:00,,0830.7,4.99,0.00,30.0,28.2,00.0,38.7,31.8,14.6,0000.0,0002.88,0006.48,0002.17
2022-09-24 17:52:00,,0830.8,5.01,0.00,30.0,28.4,00.0,38.7,31.9,14.4,0000.0,0002.89,0007.17,0002.19
2022-09-24 17:53:00,,0830.8,4.99,0.00,30.0,28.6,00.0,38.7,31.9,14.2,0000.0,0002.87,0007.07,0002.20
2022-09-24 17:54:00,,0830.8,5.00,0.00,30.0,28.7,00.0,38.7,32.0,12.8,0000.0,0002.84,0006.80,0002.21
2022-09-24 17:55:00,,0830.8,5.00,0.00,30.1,28.9,00.0,38.7,32.0,12.3,0000.0,0002.81,0007.30,0002.21
2022-09-24 17:56:00,,0830.7,5.01,0.00,30.1,29.0,00.0,38.7,32.0,12.5,0000.0,0002.76,0007.61,0002.23
2022-09-24 17:57:00,,0830.6,5.00,0.00,30.1,29.0,00.0,38.8,32.1,13.2,0000.0,0002.71,0007.57,0002.23
2022-09-24 17:58:00,,0830.6,4.99,0.00,30.2,28.3,00.0,38.7,32.1,13.2,0000.0,0002.73,0007.72,0002.25
2022-09-24 17:59:00,,0830.6,5.00,0.00,30.1,26.9,00.0,38.7,31.9,13.4,0000.0,0002.72,0008.05,0002.24
